Volver al catálogo

THORAD AGENA D DEB

ActivoSSO
NORAD 4986·DEBRIS·🇺🇸 United States

Lanzado Apr 8, 1970 desde Vandenberg Space Force Base

Loading…

Próximos Pases (próximas 24 horas)

TLE

ActualizadoSource: Space-Track

Época: Sep 13, 2026, 22:05 UTC

1  4986U 70025HG  26256.92073618  .00000027  00000-0  12140-3 0  9998
2  4986  99.7353 140.5564 0053189 211.7783 161.8969 13.42951806762537

Sigue THORAD AGENA D DEB en tiempo real con AllMySat

Download on the App Store